This is the latest recevied weather packets stored in our database for station/object RK6MF-10. If no packets are shown the sender has not sent any weather packets the latest 10 day(s).
| Time | Temp. | Humidity | Pressure | Rain* | Wind** | Luminosity | Snow |
|---|---|---|---|---|---|---|---|
| 1777981668 | 16.67° C | 40% | 1009 hPa | - | - | - | - |
| 1777980768 | 17.22° C | 40% | 1009.1 hPa | - | - | - | - |
| 1777979868 | 17.22° C | 38% | 1009.2 hPa | - | - | - | - |
| 1777978968 | 18.33° C | 38% | 1009.3 hPa | - | - | - | - |
| 1777978068 | 17.78° C | 39% | 1009.3 hPa | - | - | - | - |
| 1777977168 | 17.78° C | 39% | 1009.3 hPa | - | - | - | - |
| 1777976268 | 17.78° C | 38% | 1009.2 hPa | - | - | - | - |
| 1777975368 | 18.33° C | 38% | 1009.3 hPa | - | - | - | - |
| 1777974468 | 18.33° C | 37% | 1009.4 hPa | - | - | - | - |
| 1777973567 | 17.78° C | 36% | 1009.4 hPa | - | - | - | - |
| 1777972667 | 18.89° C | 36% | 1009.4 hPa | - | - | - | - |
| 1777971767 | 18.89° C | 39% | 1009.4 hPa | - | - | - | - |
| 1777970867 | 19.44° C | 37% | 1009.5 hPa | - | - | - | - |
| 1777969967 | 21.11° C | 41% | 1009.5 hPa | - | - | - | - |
| 1777969067 | 21.11° C | 42% | 1009.7 hPa | - | - | - | - |
| 1777967268 | 17.78° C | 49% | 1009.9 hPa | - | - | - | - |
| 1777966368 | 17.78° C | 52% | 1009.9 hPa | - | - | - | - |
| 1777965468 | 17.22° C | 61% | 1010 hPa | - | - | - | - |
| 1777964568 | 13.89° C | 65% | 1010.1 hPa | - | - | - | - |
| 1777963668 | 12.78° C | 73% | 1010 hPa | - | - | - | - |
| 1777962768 | 12.78° C | 76% | 1010.1 hPa | - | - | - | - |
| 1777961867 | 13.33° C | 88% | 1010.1 hPa | - | - | - | - |
| 1777960967 | 12.22° C | 100% | 1010.2 hPa | - | - | - | - |
| 1777960067 | 11.67° C | 100% | 1010.2 hPa | - | - | - | - |
| 1777959167 | 11.11° C | 100% | 1010.2 hPa | - | - | - | - |
* Rain since midnight (hover to see other rain measurements)
** Current wind speed in m/s (hover to see current wind gust speed)